Year,Month,Day,Hour,Minute,Value (Times are PST for barometer in hPa)
2008,01,05,00,00,974.03
2008,01,05,00,01,974.07
2008,01,05,00,02,974.13
2008,01,05,00,03,974.16
2008,01,05,00,04,974.16
2008,01,05,00,05,974.20
2008,01,05,00,06,974.16
2008,01,05,00,07,974.13
2008,01,05,00,08,974.14
2008,01,05,00,09,974.20
2008,01,05,00,10,974.20
2008,01,05,00,11,974.26
2008,01,05,00,12,974.25
2008,01,05,00,13,974.20
2008,01,05,00,14,974.16
2008,01,05,00,15,974.13
2008,01,05,00,16,974.16
2008,01,05,00,17,974.07
2008,01,05,00,18,974.16
2008,01,05,00,19,974.21
2008,01,05,00,20,974.33
2008,01,05,00,21,974.37
2008,01,05,00,22,974.37
2008,01,05,00,23,974.37
2008,01,05,00,24,974.33
2008,01,05,00,25,974.36
2008,01,05,00,26,974.30
2008,01,05,00,27,974.33
2008,01,05,00,28,974.33
2008,01,05,00,29,974.37
2008,01,05,00,30,974.33
2008,01,05,00,31,974.30
2008,01,05,00,32,974.26
2008,01,05,00,33,974.31
2008,01,05,00,34,974.37
2008,01,05,00,35,974.33
2008,01,05,00,36,974.37
2008,01,05,00,37,974.43
2008,01,05,00,38,974.43
2008,01,05,00,39,974.43
2008,01,05,00,40,974.43
2008,01,05,00,41,974.43
2008,01,05,00,42,974.47
2008,01,05,00,43,974.50
2008,01,05,00,44,974.54
2008,01,05,00,45,974.50
2008,01,05,00,46,974.54
2008,01,05,00,47,974.58
2008,01,05,00,48,974.67
2008,01,05,00,49,974.74
2008,01,05,00,50,974.74
2008,01,05,00,51,974.77
2008,01,05,00,52,974.74
2008,01,05,00,53,974.70
2008,01,05,00,54,974.67
2008,01,05,00,55,974.64
2008,01,05,00,56,974.67
2008,01,05,00,57,974.64
2008,01,05,00,58,974.64
2008,01,05,00,59,974.60
2008,01,05,01,00,974.60
2008,01,05,01,01,974.64
2008,01,05,01,02,974.60
2008,01,05,01,03,974.64
2008,01,05,01,04,974.70
2008,01,05,01,05,974.67
2008,01,05,01,06,974.68
2008,01,05,01,07,974.74
2008,01,05,01,08,974.74
2008,01,05,01,09,974.77
2008,01,05,01,10,974.77
2008,01,05,01,11,974.70
2008,01,05,01,12,974.71
2008,01,05,01,13,974.77
2008,01,05,01,14,974.81
2008,01,05,01,15,974.81
2008,01,05,01,16,974.77
2008,01,05,01,17,974.74
2008,01,05,01,18,974.71
2008,01,05,01,19,974.82
2008,01,05,01,20,974.91
2008,01,05,01,21,974.91
2008,01,05,01,22,974.95
2008,01,05,01,23,975.02
2008,01,05,01,24,975.09
2008,01,05,01,25,975.15
2008,01,05,01,26,975.21
2008,01,05,01,27,975.18
2008,01,05,01,28,975.19
2008,01,05,01,29,975.27
2008,01,05,01,30,975.22
2008,01,05,01,31,975.28
2008,01,05,01,32,975.31
2008,01,05,01,33,975.35
2008,01,05,01,34,975.39
2008,01,05,01,35,975.52
2008,01,05,01,36,975.48
2008,01,05,01,37,975.48
2008,01,05,01,38,975.46
2008,01,05,01,39,975.55
2008,01,05,01,40,975.56
2008,01,05,01,41,975.62
2008,01,05,01,42,975.60
2008,01,05,01,43,975.65
2008,01,05,01,44,975.68
2008,01,05,01,45,975.59
2008,01,05,01,46,975.62
2008,01,05,01,47,975.62
2008,01,05,01,48,975.73
2008,01,05,01,49,975.86
2008,01,05,01,50,975.90
2008,01,05,01,51,976.00
2008,01,05,01,52,976.09
2008,01,05,01,53,976.09
2008,01,05,01,54,976.05
2008,01,05,01,55,975.99
2008,01,05,01,56,975.99
2008,01,05,01,57,976.03
2008,01,05,01,58,976.06
2008,01,05,01,59,976.03
2008,01,05,02,00,976.03
2008,01,05,02,01,975.99
2008,01,05,02,02,976.03
2008,01,05,02,03,976.03
2008,01,05,02,04,975.99
2008,01,05,02,05,976.02
2008,01,05,02,06,975.97
2008,01,05,02,07,976.10
2008,01,05,02,08,976.17
2008,01,05,02,09,976.24
2008,01,05,02,10,976.33
2008,01,05,02,11,976.36
2008,01,05,02,12,976.36
2008,01,05,02,13,976.34
2008,01,05,02,14,976.47
2008,01,05,02,15,976.45
2008,01,05,02,16,976.60
2008,01,05,02,17,976.60
2008,01,05,02,18,976.63
2008,01,05,02,19,976.67
2008,01,05,02,20,976.71
2008,01,05,02,21,976.77
2008,01,05,02,22,976.74
2008,01,05,02,23,976.77
2008,01,05,02,24,976.80
2008,01,05,02,25,976.77
2008,01,05,02,26,976.78
2008,01,05,02,27,976.87
2008,01,05,02,28,976.87
2008,01,05,02,29,976.91
2008,01,05,02,30,976.94
2008,01,05,02,31,976.94
2008,01,05,02,32,976.97
2008,01,05,02,33,976.97
2008,01,05,02,34,976.94
2008,01,05,02,35,976.97
2008,01,05,02,36,977.00
2008,01,05,02,37,976.94
2008,01,05,02,38,976.91
2008,01,05,02,39,976.94
2008,01,05,02,40,976.97
2008,01,05,02,41,977.01
2008,01,05,02,42,976.97
2008,01,05,02,43,976.97
2008,01,05,02,44,977.01
2008,01,05,02,45,977.08
2008,01,05,02,46,977.09
2008,01,05,02,47,977.22
2008,01,05,02,48,977.29
2008,01,05,02,49,977.39
2008,01,05,02,50,977.52
2008,01,05,02,51,977.52
2008,01,05,02,52,977.56
2008,01,05,02,53,977.66
2008,01,05,02,54,977.72
2008,01,05,02,55,977.75
2008,01,05,02,56,977.75
2008,01,05,02,57,977.75
2008,01,05,02,58,977.81
2008,01,05,02,59,977.72
2008,01,05,03,00,977.82
2008,01,05,03,01,977.75
2008,01,05,03,02,977.74
2008,01,05,03,03,977.68
2008,01,05,03,04,977.67
2008,01,05,03,05,977.62
2008,01,05,03,06,977.57
2008,01,05,03,07,977.54
2008,01,05,03,08,977.68
2008,01,05,03,09,977.63
2008,01,05,03,10,977.72
2008,01,05,03,11,977.75
2008,01,05,03,12,977.82
2008,01,05,03,13,977.83
2008,01,05,03,14,977.89
2008,01,05,03,15,977.91
2008,01,05,03,16,978.09
2008,01,05,03,17,978.11
2008,01,05,03,18,978.32
2008,01,05,03,19,978.26
2008,01,05,03,20,978.27
2008,01,05,03,21,978.49
2008,01,05,03,22,978.40
2008,01,05,03,23,978.42
2008,01,05,03,24,978.30
2008,01,05,03,25,978.44
2008,01,05,03,26,978.50
2008,01,05,03,27,978.57
2008,01,05,03,28,978.57
2008,01,05,03,29,978.63
2008,01,05,03,30,978.62
2008,01,05,03,31,978.81
2008,01,05,03,32,979.02
2008,01,05,03,33,978.81
2008,01,05,03,34,978.91
2008,01,05,03,35,978.98
2008,01,05,03,36,979.05
2008,01,05,03,37,979.13
2008,01,05,03,38,979.01
2008,01,05,03,39,979.01
2008,01,05,03,40,979.01
2008,01,05,03,41,979.07
2008,01,05,03,42,979.05
2008,01,05,03,43,979.11
2008,01,05,03,44,979.21
2008,01,05,03,45,979.15
2008,01,05,03,46,979.25
2008,01,05,03,47,979.38
2008,01,05,03,48,979.35
2008,01,05,03,49,979.40
2008,01,05,03,50,979.21
2008,01,05,03,51,979.24
2008,01,05,03,52,979.24
2008,01,05,03,53,979.31
2008,01,05,03,54,979.31
2008,01,05,03,55,979.34
2008,01,05,03,56,979.38
2008,01,05,03,57,979.34
2008,01,05,03,58,979.30
2008,01,05,03,59,979.18
2008,01,05,04,00,979.27
2008,01,05,04,01,979.17
2008,01,05,04,02,979.18
2008,01,05,04,03,979.31
2008,01,05,04,04,979.32
2008,01,05,04,05,979.23
2008,01,05,04,06,979.38
2008,01,05,04,07,979.38
2008,01,05,04,08,979.35
2008,01,05,04,09,979.46
2008,01,05,04,10,979.48
2008,01,05,04,11,979.45
2008,01,05,04,28,979.80
2008,01,05,04,42,980.41
2008,01,05,04,59,980.66
2008,01,05,05,13,981.40
2008,01,05,05,30,981.26
2008,01,05,05,49,981.71
2008,01,05,06,00,981.89
2008,01,05,06,01,981.95
2008,01,05,06,02,981.92
2008,01,05,06,03,982.02
2008,01,05,06,04,982.05
2008,01,05,06,05,982.02
2008,01,05,06,06,981.99
2008,01,05,06,07,982.02
2008,01,05,06,08,982.05
2008,01,05,06,09,982.06
2008,01,05,06,10,982.17
2008,01,05,06,11,982.32
2008,01,05,06,12,982.37
2008,01,05,06,13,982.44
2008,01,05,06,14,982.48
2008,01,05,06,15,982.43
2008,01,05,06,16,982.40
2008,01,05,06,17,982.49
2008,01,05,06,18,982.53
2008,01,05,06,19,982.56
2008,01,05,06,20,982.56
2008,01,05,06,21,982.63
2008,01,05,06,22,982.57
2008,01,05,06,23,982.64
2008,01,05,06,24,982.73
2008,01,05,06,25,982.70
2008,01,05,06,26,982.73
2008,01,05,06,27,982.80
2008,01,05,06,28,982.80
2008,01,05,06,29,982.83
2008,01,05,06,30,982.88
2008,01,05,06,31,982.97
2008,01,05,06,32,983.07
2008,01,05,06,33,983.10
2008,01,05,06,34,983.07
2008,01,05,06,35,983.11
2008,01,05,06,36,983.17
2008,01,05,06,37,983.20
2008,01,05,06,38,983.20
2008,01,05,06,39,983.17
2008,01,05,06,40,983.11
2008,01,05,06,41,983.17
2008,01,05,06,42,983.20
2008,01,05,06,43,983.17
2008,01,05,06,44,983.20
2008,01,05,06,45,983.25
2008,01,05,06,46,983.34
2008,01,05,06,47,983.41
2008,01,05,06,48,983.41
2008,01,05,06,49,983.41
2008,01,05,06,50,983.52
2008,01,05,06,51,983.62
2008,01,05,06,52,983.68
2008,01,05,06,53,983.60
2008,01,05,06,54,983.51
2008,01,05,06,55,983.59
2008,01,05,06,56,983.68
2008,01,05,06,57,983.68
2008,01,05,06,58,983.68
2008,01,05,06,59,983.71
2008,01,05,07,00,983.76
2008,01,05,07,01,983.91
2008,01,05,07,02,983.81
2008,01,05,07,03,983.79
2008,01,05,07,04,983.85
2008,01,05,07,05,983.87
2008,01,05,07,06,983.78
2008,01,05,07,07,983.76
2008,01,05,07,08,983.80
2008,01,05,07,09,983.75
2008,01,05,07,10,983.75
2008,01,05,07,11,983.76
2008,01,05,07,12,983.82
2008,01,05,07,13,983.93
2008,01,05,07,14,983.98
2008,01,05,07,15,983.98
2008,01,05,07,16,983.95
2008,01,05,07,17,983.99
2008,01,05,07,18,984.06
2008,01,05,07,19,984.15
2008,01,05,07,20,984.15
2008,01,05,07,21,984.16
2008,01,05,07,22,984.22
2008,01,05,07,23,984.19
2008,01,05,07,24,984.22
2008,01,05,07,25,984.23
2008,01,05,07,26,984.32
2008,01,05,07,27,984.34
2008,01,05,07,28,984.49
2008,01,05,07,29,984.49
2008,01,05,07,30,984.46
2008,01,05,07,31,984.45
2008,01,05,07,32,984.32
2008,01,05,07,33,984.26
2008,01,05,07,34,984.33
2008,01,05,07,35,984.39
2008,01,05,07,36,984.46
2008,01,05,07,37,984.46
2008,01,05,07,38,984.42
2008,01,05,07,39,984.36
2008,01,05,07,40,984.39
2008,01,05,07,41,984.42
2008,01,05,07,42,984.46
2008,01,05,07,43,984.52
2008,01,05,07,44,984.46
2008,01,05,07,45,984.47
2008,01,05,07,46,984.53
2008,01,05,07,47,984.49
2008,01,05,07,48,984.59
2008,01,05,07,49,984.63
2008,01,05,07,50,984.60
2008,01,05,07,51,984.74
2008,01,05,07,52,984.83
2008,01,05,07,53,984.90
2008,01,05,07,54,984.98
2008,01,05,07,55,985.10
2008,01,05,07,56,985.13
2008,01,05,07,57,985.17
2008,01,05,07,58,985.17
2008,01,05,07,59,985.20
2008,01,05,08,00,985.27
2008,01,05,08,01,985.24
2008,01,05,08,02,985.21
2008,01,05,08,03,985.30
2008,01,05,08,04,985.29
2008,01,05,08,05,985.25
2008,01,05,08,06,985.34
2008,01,05,08,07,985.44
2008,01,05,08,08,985.41
2008,01,05,08,09,985.47
2008,01,05,08,10,985.51
2008,01,05,08,11,985.54
2008,01,05,08,12,985.54
2008,01,05,08,13,985.54
2008,01,05,08,14,985.51
2008,01,05,08,15,985.54
2008,01,05,08,16,985.54
2008,01,05,08,17,985.51
2008,01,05,08,18,985.51
2008,01,05,08,19,985.54
2008,01,05,08,20,985.51
2008,01,05,08,21,985.48
2008,01,05,08,22,985.54
2008,01,05,08,23,985.54
2008,01,05,08,24,985.61
2008,01,05,08,25,985.71
2008,01,05,08,26,985.74
2008,01,05,08,27,985.78
2008,01,05,08,28,985.81
2008,01,05,08,29,985.81
2008,01,05,08,30,985.81
2008,01,05,08,31,985.81
2008,01,05,08,32,985.81
2008,01,05,08,33,985.79
2008,01,05,08,34,985.85
2008,01,05,08,35,985.82
2008,01,05,08,36,985.91
2008,01,05,08,37,985.86
2008,01,05,08,38,985.98
2008,01,05,08,39,986.02
2008,01,05,08,40,986.05
2008,01,05,08,41,986.02
2008,01,05,08,42,986.08
2008,01,05,08,43,986.15
2008,01,05,08,44,986.22
2008,01,05,08,45,986.29
2008,01,05,08,46,986.35
2008,01,05,08,47,986.39
2008,01,05,08,48,986.36
2008,01,05,08,49,986.43
2008,01,05,08,50,986.49
2008,01,05,08,51,986.49
2008,01,05,08,52,986.56
2008,01,05,08,53,986.52
2008,01,05,08,54,986.49
2008,01,05,08,55,986.49
2008,01,05,08,56,986.52
2008,01,05,08,57,986.52
2008,01,05,08,58,986.59
2008,01,05,08,59,986.63
2008,01,05,09,00,986.76
2008,01,05,09,01,986.83
2008,01,05,09,02,986.84
2008,01,05,09,03,987.00
2008,01,05,09,04,986.97
2008,01,05,09,05,987.03
2008,01,05,09,06,987.00
2008,01,05,09,07,987.03
2008,01,05,09,08,987.01
2008,01,05,09,09,987.13
2008,01,05,09,10,987.10
2008,01,05,09,11,987.14
2008,01,05,09,12,987.23
2008,01,05,09,13,987.27
2008,01,05,09,14,987.27
2008,01,05,09,15,987.23
2008,01,05,09,16,987.27
2008,01,05,09,17,987.17
2008,01,05,09,18,987.20
2008,01,05,09,19,987.23
2008,01,05,09,20,987.27
2008,01,05,09,21,987.23
2008,01,05,09,22,987.23
2008,01,05,09,23,987.17
2008,01,05,09,24,987.23
2008,01,05,09,25,987.27
2008,01,05,09,26,987.23
2008,01,05,09,27,987.23
2008,01,05,09,28,987.27
2008,01,05,09,29,987.34
2008,01,05,09,30,987.38
2008,01,05,09,31,987.53
2008,01,05,09,32,987.45
2008,01,05,09,33,987.54
2008,01,05,09,34,987.51
2008,01,05,09,35,987.45
2008,01,05,09,36,987.51
2008,01,05,09,37,987.54
2008,01,05,09,38,987.61
2008,01,05,09,39,987.56
2008,01,05,09,40,987.71
2008,01,05,09,41,987.70
2008,01,05,09,42,987.64
2008,01,05,09,43,987.57
2008,01,05,09,44,987.61
2008,01,05,09,45,987.57
2008,01,05,09,46,987.57
2008,01,05,09,47,987.62
2008,01,05,09,48,987.78
2008,01,05,09,49,987.74
2008,01,05,09,50,987.78
2008,01,05,09,51,987.84
2008,01,05,09,52,987.85
2008,01,05,09,53,987.95
2008,01,05,09,54,987.91
2008,01,05,09,55,987.95
2008,01,05,09,56,987.98
2008,01,05,09,57,987.98
2008,01,05,09,58,987.98
2008,01,05,09,59,988.01
2008,01,05,10,00,988.02
2008,01,05,10,01,988.11
2008,01,05,10,02,988.05
2008,01,05,10,03,988.05
2008,01,05,10,04,988.10
2008,01,05,10,05,988.01
2008,01,05,10,06,988.04
2008,01,05,10,07,987.98
2008,01,05,10,08,988.08
2008,01,05,10,09,988.15
2008,01,05,10,10,988.18
2008,01,05,10,11,988.25
2008,01,05,10,12,988.32
2008,01,05,10,13,988.32
2008,01,05,10,14,988.29
2008,01,05,10,15,988.39
2008,01,05,10,16,988.35
2008,01,05,10,17,988.39
2008,01,05,10,18,988.35
2008,01,05,10,19,988.34
2008,01,05,10,20,988.25
2008,01,05,10,21,988.26
2008,01,05,10,22,988.34
2008,01,05,10,23,988.29
2008,01,05,10,24,988.42
2008,01,05,10,25,988.42
2008,01,05,10,26,988.42
2008,01,05,10,27,988.39
2008,01,05,10,28,988.40
2008,01,05,10,29,988.52
2008,01,05,10,30,988.55
2008,01,05,10,31,988.56
2008,01,05,10,32,988.66
2008,01,05,10,33,988.60
2008,01,05,10,34,988.72
2008,01,05,10,35,988.72
2008,01,05,10,36,988.76
2008,01,05,10,37,988.72
2008,01,05,10,38,988.72
2008,01,05,10,39,988.76
2008,01,05,10,40,988.72
2008,01,05,10,41,988.76
2008,01,05,10,42,988.76
2008,01,05,10,43,988.72
2008,01,05,10,44,988.79
2008,01,05,10,45,988.83
2008,01,05,10,46,988.76
2008,01,05,10,47,988.76
2008,01,05,10,48,988.79
2008,01,05,10,49,988.76
2008,01,05,10,50,988.72
2008,01,05,10,51,988.72
2008,01,05,10,52,988.66
2008,01,05,10,53,988.66
2008,01,05,10,54,988.69
2008,01,05,10,55,988.76
2008,01,05,10,56,988.76
2008,01,05,10,57,988.76
2008,01,05,10,58,988.76
2008,01,05,10,59,988.72
2008,01,05,11,00,988.72
2008,01,05,11,01,988.79
2008,01,05,11,02,988.83
2008,01,05,11,03,988.79
2008,01,05,11,04,988.76
2008,01,05,11,05,988.83
2008,01,05,11,06,988.79
2008,01,05,11,07,988.83
2008,01,05,11,08,988.86
2008,01,05,11,09,988.86
2008,01,05,11,10,988.89
2008,01,05,11,11,988.88
2008,01,05,11,12,988.76
2008,01,05,11,13,988.83
2008,01,05,11,14,988.89
2008,01,05,11,15,988.83
2008,01,05,11,16,988.86
2008,01,05,11,17,988.89
2008,01,05,11,18,988.85
2008,01,05,11,19,988.76
2008,01,05,11,20,988.79
2008,01,05,11,21,988.76
2008,01,05,11,22,988.76
2008,01,05,11,23,988.79
2008,01,05,11,24,988.83
2008,01,05,11,25,988.79
2008,01,05,11,26,988.89
2008,01,05,11,27,988.86
2008,01,05,11,28,988.89
2008,01,05,11,29,988.96
2008,01,05,11,30,988.93
2008,01,05,11,31,988.89
2008,01,05,11,32,988.86
2008,01,05,11,33,988.93
2008,01,05,11,34,989.00
2008,01,05,11,35,989.01
2008,01,05,11,36,989.10
2008,01,05,11,37,989.06
2008,01,05,11,38,989.10
2008,01,05,11,39,989.10
2008,01,05,11,40,989.06
2008,01,05,11,41,989.05
2008,01,05,11,42,988.96
2008,01,05,11,43,989.03
2008,01,05,11,44,989.03
2008,01,05,11,45,989.10
2008,01,05,11,46,989.03
2008,01,05,11,47,989.06
2008,01,05,11,48,989.10
2008,01,05,11,49,989.10
2008,01,05,11,50,989.16
2008,01,05,11,51,989.16
2008,01,05,11,52,989.16
2008,01,05,11,53,989.23
2008,01,05,11,54,989.16
2008,01,05,11,55,989.20
2008,01,05,11,56,989.20
2008,01,05,11,57,989.23
2008,01,05,11,58,989.23
2008,01,05,11,59,989.23
2008,01,05,12,00,989.20
2008,01,05,12,01,989.20
2008,01,05,12,02,989.20
2008,01,05,12,03,989.23
2008,01,05,12,04,989.23
2008,01,05,12,05,989.23
2008,01,05,12,06,989.30
2008,01,05,12,07,989.27
2008,01,05,12,08,989.33
2008,01,05,12,09,989.44
2008,01,05,12,10,989.47
2008,01,05,12,11,989.47
2008,01,05,12,12,989.40
2008,01,05,12,13,989.44
2008,01,05,12,14,989.50
2008,01,05,12,15,989.54
2008,01,05,12,16,989.54
2008,01,05,12,17,989.54
2008,01,05,12,18,989.57
2008,01,05,12,19,989.57
2008,01,05,12,20,989.60
2008,01,05,12,21,989.67
2008,01,05,12,22,989.60
2008,01,05,12,23,989.67
2008,01,05,12,24,989.60
2008,01,05,12,25,989.64
2008,01,05,12,26,989.57
2008,01,05,12,27,989.67
2008,01,05,12,28,989.60
2008,01,05,12,29,989.58
2008,01,05,12,30,989.72
2008,01,05,12,31,989.84
2008,01,05,12,32,989.74
2008,01,05,12,33,989.81
2008,01,05,12,34,989.88
2008,01,05,12,35,989.91
2008,01,05,12,36,989.94
2008,01,05,12,37,989.94
2008,01,05,12,38,989.98
2008,01,05,12,39,990.01
2008,01,05,12,40,989.98
2008,01,05,12,41,989.98
2008,01,05,12,42,989.95
2008,01,05,12,43,990.04
2008,01,05,12,44,989.98
2008,01,05,12,45,989.94
2008,01,05,12,46,989.91
2008,01,05,12,47,989.94
2008,01,05,12,48,989.91
2008,01,05,12,49,989.91
2008,01,05,12,50,989.98
2008,01,05,12,51,989.94
2008,01,05,12,52,990.01
2008,01,05,12,53,990.01
2008,01,05,12,54,989.94
2008,01,05,12,55,989.98
2008,01,05,12,56,990.01
2008,01,05,12,57,989.98
2008,01,05,12,58,990.04
2008,01,05,12,59,990.08
2008,01,05,13,00,990.11
2008,01,05,13,01,990.08
2008,01,05,13,02,990.04
2008,01,05,13,03,990.01
2008,01,05,13,04,989.98
2008,01,05,13,05,989.98
2008,01,05,13,06,989.98
2008,01,05,13,07,989.94
2008,01,05,13,08,989.94
2008,01,05,13,09,989.91
2008,01,05,13,10,989.94
2008,01,05,13,11,989.91
2008,01,05,13,12,989.84
2008,01,05,13,13,989.88
2008,01,05,13,14,989.88
2008,01,05,13,15,989.94
2008,01,05,13,16,989.98
2008,01,05,13,17,989.92
2008,01,05,13,18,990.04
2008,01,05,13,19,990.01
2008,01,05,13,20,990.04
2008,01,05,13,21,990.08
2008,01,05,13,22,990.11
2008,01,05,13,23,990.08
2008,01,05,13,24,990.11
2008,01,05,13,25,990.11
2008,01,05,13,26,990.15
2008,01,05,13,27,990.21
2008,01,05,13,28,990.21
2008,01,05,13,29,990.21
2008,01,05,13,30,990.15
2008,01,05,13,31,990.18
2008,01,05,13,32,990.18
2008,01,05,13,33,990.15
2008,01,05,13,34,990.15
2008,01,05,13,35,990.18
2008,01,05,13,36,990.15
2008,01,05,13,37,990.15
2008,01,05,13,38,990.15
2008,01,05,13,39,990.11
2008,01,05,13,40,990.18
2008,01,05,13,41,990.15
2008,01,05,13,42,990.18
2008,01,05,13,43,990.15
2008,01,05,13,44,990.18
2008,01,05,13,45,990.21
2008,01,05,13,46,990.18
2008,01,05,13,47,990.25
2008,01,05,13,48,990.21
2008,01,05,13,49,990.21
2008,01,05,13,50,990.28
2008,01,05,13,51,990.32
2008,01,05,13,52,990.32
2008,01,05,13,53,990.32
2008,01,05,13,54,990.35
2008,01,05,13,55,990.35
2008,01,05,13,56,990.38
2008,01,05,13,57,990.35
2008,01,05,13,58,990.28
2008,01,05,13,59,990.33
2008,01,05,14,00,990.45
2008,01,05,14,01,990.35
2008,01,05,14,02,990.35
2008,01,05,14,03,990.35
2008,01,05,14,04,990.41
2008,01,05,14,05,990.32
2008,01,05,14,06,990.35
2008,01,05,14,07,990.32
2008,01,05,14,08,990.28
2008,01,05,14,09,990.32
2008,01,05,14,10,990.25
2008,01,05,14,11,990.35
2008,01,05,14,12,990.35
2008,01,05,14,13,990.32
2008,01,05,14,14,990.25
2008,01,05,14,15,990.25
2008,01,05,14,16,990.38
2008,01,05,14,17,990.32
2008,01,05,14,18,990.42
2008,01,05,14,19,990.52
2008,01,05,14,20,990.45
2008,01,05,14,21,990.52
2008,01,05,14,22,990.49
2008,01,05,14,23,990.49
2008,01,05,14,24,990.52
2008,01,05,14,25,990.55
2008,01,05,14,26,990.55
2008,01,05,14,27,990.55
2008,01,05,14,28,990.56
2008,01,05,14,29,990.69
2008,01,05,14,30,990.76
2008,01,05,14,31,990.72
2008,01,05,14,32,990.76
2008,01,05,14,33,990.69
2008,01,05,14,34,990.76
2008,01,05,14,35,990.79
2008,01,05,14,36,990.82
2008,01,05,14,37,990.89
2008,01,05,14,38,990.93
2008,01,05,14,39,990.86
2008,01,05,14,40,990.82
2008,01,05,14,41,990.89
2008,01,05,14,42,990.83
2008,01,05,14,43,990.96
2008,01,05,14,44,990.96
2008,01,05,14,45,990.89
2008,01,05,14,46,990.93
2008,01,05,14,47,990.96
2008,01,05,14,48,991.03
2008,01,05,14,49,990.99
2008,01,05,14,50,990.96
2008,01,05,14,51,990.93
2008,01,05,14,52,991.03
2008,01,05,14,53,991.06
2008,01,05,14,54,991.03
2008,01,05,14,55,991.13
2008,01,05,14,56,991.09
2008,01,05,14,57,991.09
2008,01,05,14,58,991.06
2008,01,05,14,59,991.09
2008,01,05,15,00,991.13
2008,01,05,15,01,991.20
2008,01,05,15,02,991.13
2008,01,05,15,03,991.13
2008,01,05,15,04,991.16
2008,01,05,15,05,991.16
2008,01,05,15,06,991.13
2008,01,05,15,07,991.13
2008,01,05,15,08,991.06
2008,01,05,15,09,991.13
2008,01,05,15,10,991.16
2008,01,05,15,11,991.20
2008,01,05,15,12,991.16
2008,01,05,15,13,991.13
2008,01,05,15,14,991.16
2008,01,05,15,15,991.23
2008,01,05,15,16,991.21
2008,01,05,15,17,991.30
2008,01,05,15,18,991.26
2008,01,05,15,19,991.26
2008,01,05,15,20,991.30
2008,01,05,15,21,991.37
2008,01,05,15,22,991.37
2008,01,05,15,23,991.30
2008,01,05,15,24,991.40
2008,01,05,15,25,991.38
2008,01,05,15,26,991.47
2008,01,05,15,27,991.40
2008,01,05,15,28,991.37
2008,01,05,15,29,991.43
2008,01,05,15,30,991.47
2008,01,05,15,31,991.52
2008,01,05,15,32,991.40
2008,01,05,15,33,991.53
2008,01,05,15,34,991.53
2008,01,05,15,35,991.50
2008,01,05,15,36,991.57
2008,01,05,15,37,991.53
2008,01,05,15,38,991.60
2008,01,05,15,39,991.64
2008,01,05,15,40,991.57
2008,01,05,15,41,991.60
2008,01,05,15,42,991.60
2008,01,05,15,43,991.64
2008,01,05,15,44,991.64
2008,01,05,15,45,991.60
2008,01,05,15,46,991.61
2008,01,05,15,47,991.77
2008,01,05,15,48,991.67
2008,01,05,15,49,991.74
2008,01,05,15,50,991.80
2008,01,05,15,51,991.70
2008,01,05,15,52,991.77
2008,01,05,15,53,991.71
2008,01,05,15,54,991.87
2008,01,05,15,55,991.87
2008,01,05,15,56,991.84
2008,01,05,15,57,991.81
2008,01,05,15,58,991.84
2008,01,05,15,59,991.84
2008,01,05,16,00,991.87
2008,01,05,16,01,991.87
2008,01,05,16,02,991.84
2008,01,05,16,03,991.87
2008,01,05,16,04,991.84
2008,01,05,16,05,991.91
2008,01,05,16,06,991.91
2008,01,05,16,07,991.91
2008,01,05,16,08,991.91
2008,01,05,16,09,991.91
2008,01,05,16,10,991.98
2008,01,05,16,11,991.98
2008,01,05,16,12,992.01
2008,01,05,16,13,991.91
2008,01,05,16,14,991.98
2008,01,05,16,15,992.01
2008,01,05,16,16,992.08
2008,01,05,16,17,992.11
2008,01,05,16,18,992.14
2008,01,05,16,19,992.15
2008,01,05,16,20,992.25
2008,01,05,16,21,992.18
2008,01,05,16,22,992.28
2008,01,05,16,23,992.18
2008,01,05,16,24,992.18
2008,01,05,16,25,992.25
2008,01,05,16,26,992.25
2008,01,05,16,27,992.28
2008,01,05,16,28,992.31
2008,01,05,16,29,992.38
2008,01,05,16,30,992.38
2008,01,05,16,31,992.31
2008,01,05,16,32,992.38
2008,01,05,16,33,992.38
2008,01,05,16,34,992.45
2008,01,05,16,35,992.48
2008,01,05,16,36,992.52
2008,01,05,16,37,992.55
2008,01,05,16,38,992.52
2008,01,05,16,39,992.52
2008,01,05,16,40,992.65
2008,01,05,16,41,992.72
2008,01,05,16,42,992.69
2008,01,05,16,43,992.79
2008,01,05,16,44,992.72
2008,01,05,16,45,992.89
2008,01,05,16,46,992.73
2008,01,05,16,47,992.92
2008,01,05,16,48,992.86
2008,01,05,16,49,992.86
2008,01,05,16,50,992.85
2008,01,05,16,51,992.71
2008,01,05,16,52,992.55
2008,01,05,16,53,992.66
2008,01,05,16,54,992.79
2008,01,05,16,55,992.75
2008,01,05,16,56,992.69
2008,01,05,16,57,992.72
2008,01,05,16,58,992.75
2008,01,05,16,59,992.75
2008,01,05,17,00,992.69
2008,01,05,17,01,992.62
2008,01,05,17,02,992.65
2008,01,05,17,03,992.65
2008,01,05,17,04,992.69
2008,01,05,17,05,992.72
2008,01,05,17,06,992.72
2008,01,05,17,07,992.69
2008,01,05,17,08,992.75
2008,01,05,17,09,992.72
2008,01,05,17,10,992.72
2008,01,05,17,11,992.75
2008,01,05,17,12,992.75
2008,01,05,17,13,992.79
2008,01,05,17,14,992.79
2008,01,05,17,15,992.79
2008,01,05,17,16,992.89
2008,01,05,17,17,992.89
2008,01,05,17,18,992.92
2008,01,05,17,19,992.96
2008,01,05,17,20,993.03
2008,01,05,17,21,993.03
2008,01,05,17,22,993.03
2008,01,05,17,23,993.03
2008,01,05,17,24,993.03
2008,01,05,17,25,992.99
2008,01,05,17,26,993.03
2008,01,05,17,27,992.99
2008,01,05,17,28,992.96
2008,01,05,17,29,993.03
2008,01,05,17,30,993.03
2008,01,05,17,31,993.03
2008,01,05,17,32,993.06
2008,01,05,17,33,993.09
2008,01,05,17,34,993.06
2008,01,05,17,35,993.06
2008,01,05,17,36,993.06
2008,01,05,17,37,993.06
2008,01,05,17,38,993.13
2008,01,05,17,39,993.03
2008,01,05,17,40,993.16
2008,01,05,17,41,993.16
2008,01,05,17,42,993.13
2008,01,05,17,43,993.19
2008,01,05,17,44,993.13
2008,01,05,17,45,993.13
2008,01,05,17,46,993.16
2008,01,05,17,47,993.26
2008,01,05,17,48,993.23
2008,01,05,17,49,993.26
2008,01,05,17,50,993.26
2008,01,05,17,51,993.30
2008,01,05,17,52,993.30
2008,01,05,17,53,993.33
2008,01,05,17,54,993.36
2008,01,05,17,55,993.43
2008,01,05,17,56,993.36
2008,01,05,17,57,993.43
2008,01,05,17,58,993.36
2008,01,05,17,59,993.43
2008,01,05,18,00,993.43
2008,01,05,18,01,993.40
2008,01,05,18,02,993.40
2008,01,05,18,03,993.43
2008,01,05,18,04,993.43
2008,01,05,18,05,993.40
2008,01,05,18,06,993.43
2008,01,05,18,07,993.50
2008,01,05,18,08,993.47
2008,01,05,18,09,993.53
2008,01,05,18,10,993.63
2008,01,05,18,11,993.63
2008,01,05,18,12,993.63
2008,01,05,18,13,993.63
2008,01,05,18,14,993.60
2008,01,05,18,15,993.60
2008,01,05,18,16,993.70
2008,01,05,18,17,993.74
2008,01,05,18,18,993.74